Time,TemperatureF,DewpointF,PressureIn,WindDirection,WindDirectionDegrees,WindSpeedMPH,WindSpeedGustMPH,Humidity,HourlyPrecipIn,Conditions,Clouds,dailyrainin,SoftwareType,DateUTC
2013-01-02 00:02:00,9.0,7.0,-100.00,SSE,161,0.0,3.0,92,-99.99,,,-99.99,,2013-01-02 07:02:00,
2013-01-02 00:12:00,9.0,7.0,-100.00,SSE,161,0.0,3.0,92,-99.99,,,-99.99,,2013-01-02 07:12:00,
2013-01-02 00:22:00,9.0,7.0,-100.00,SSE,160,1.0,4.0,92,-99.99,,,-99.99,,2013-01-02 07:22:00,
2013-01-02 00:32:00,10.0,8.0,-100.00,SE,143,0.0,2.0,90,-99.99,,,-99.99,,2013-01-02 07:32:00,
2013-01-02 00:42:00,10.0,8.0,-100.00,SE,143,0.0,2.0,90,-99.99,,,-99.99,,2013-01-02 07:42:00,
2013-01-02 00:52:00,9.0,7.0,-100.00,ESE,120,0.0,2.0,91,-99.99,,,-99.99,,2013-01-02 07:52:00,
2013-01-02 01:02:00,7.0,5.0,-100.00,SSE,153,0.0,1.0,91,-99.99,,,-99.99,,2013-01-02 08:02:00,
2013-01-02 01:11:00,7.0,5.0,-100.00,SSE,153,0.0,1.0,91,-99.99,,,-99.99,,2013-01-02 08:11:00,
2013-01-02 01:22:00,7.0,6.0,-100.00,South,174,0.0,3.0,94,-99.99,,,-99.99,,2013-01-02 08:22:00,
2013-01-02 01:32:00,9.0,7.0,-100.00,South,188,1.0,5.0,90,-99.99,,,-99.99,,2013-01-02 08:32:00,
2013-01-02 01:42:00,9.0,7.0,-100.00,South,188,1.0,5.0,90,-99.99,,,-99.99,,2013-01-02 08:42:00,
2013-01-02 01:53:00,11.0,8.0,-100.00,SE,135,0.0,3.0,87,-99.99,,,-99.99,,2013-01-02 08:53:00,
2013-01-02 02:02:00,11.0,8.0,-100.00,South,174,0.0,0.0,86,-99.99,,,-99.99,,2013-01-02 09:02:00,
2013-01-02 02:12:00,11.0,8.0,-100.00,South,174,0.0,0.0,86,-99.99,,,-99.99,,2013-01-02 09:12:00,
2013-01-02 02:22:00,10.0,7.0,-100.00,SSE,147,0.0,1.0,88,-99.99,,,-99.99,,2013-01-02 09:22:00,
2013-01-02 02:32:00,11.0,9.0,-100.00,SE,144,0.0,1.0,90,-99.99,,,-99.99,,2013-01-02 09:32:00,
2013-01-02 02:43:00,11.0,9.0,-100.00,SE,144,0.0,1.0,90,-99.99,,,-99.99,,2013-01-02 09:43:00,
2013-01-02 02:52:00,10.0,7.0,-100.00,SE,141,0.0,2.0,87,-99.99,,,-99.99,,2013-01-02 09:52:00,
2013-01-02 03:02:00,10.0,6.0,-100.00,ESE,103,0.0,1.0,84,-99.99,,,-99.99,,2013-01-02 10:02:00,
2013-01-02 03:12:00,10.0,6.0,-100.00,ESE,103,0.0,1.0,84,-99.99,,,-99.99,,2013-01-02 10:12:00,
2013-01-02 03:22:00,10.0,6.0,-100.00,ESE,102,0.0,1.0,83,-99.99,,,-99.99,,2013-01-02 10:22:00,
2013-01-02 03:32:00,8.0,5.0,-100.00,ESE,120,0.0,1.0,87,-99.99,,,-99.99,,2013-01-02 10:32:00,
2013-01-02 03:42:00,8.0,5.0,-100.00,ESE,120,0.0,1.0,87,-99.99,,,-99.99,,2013-01-02 10:42:00,
2013-01-02 03:52:00,8.0,5.0,-100.00,ESE,112,0.0,0.0,88,-99.99,,,-99.99,,2013-01-02 10:52:00,
2013-01-02 04:02:00,8.0,6.0,-100.00,ESE,112,0.0,0.0,90,-99.99,,,-99.99,,2013-01-02 11:02:00,
2013-01-02 04:11:00,8.0,6.0,-100.00,ESE,112,0.0,0.0,90,-99.99,,,-99.99,,2013-01-02 11:11:00,
2013-01-02 04:22:00,7.0,5.0,-100.00,SE,124,0.0,0.0,91,-99.99,,,-99.99,,2013-01-02 11:22:00,
2013-01-02 04:32:00,7.0,5.0,-100.00,SE,124,0.0,0.0,93,-99.99,,,-99.99,,2013-01-02 11:32:00,
2013-01-02 04:42:00,7.0,5.0,-100.00,SE,124,0.0,0.0,93,-99.99,,,-99.99,,2013-01-02 11:42:00,
2013-01-02 04:52:00,7.0,6.0,-100.00,SSE,152,0.0,1.0,95,-99.99,,,-99.99,,2013-01-02 11:52:00,
2013-01-02 05:02:00,7.0,6.0,-100.00,SSE,164,0.0,2.0,95,-99.99,,,-99.99,,2013-01-02 12:02:00,
2013-01-02 05:12:00,7.0,6.0,-100.00,SSE,164,0.0,2.0,95,-99.99,,,-99.99,,2013-01-02 12:12:00,
2013-01-02 05:22:00,7.0,6.0,-100.00,SSE,165,0.0,1.0,95,-99.99,,,-99.99,,2013-01-02 12:22:00,
2013-01-02 05:32:00,7.0,6.0,-100.00,North,0,0.0,0.0,95,-99.99,,,-99.99,,2013-01-02 12:32:00,
2013-01-02 05:42:00,7.0,6.0,-100.00,North,0,0.0,0.0,95,-99.99,,,-99.99,,2013-01-02 12:42:00,
2013-01-02 05:53:00,7.0,6.0,-100.00,SSE,165,0.0,1.0,95,-99.99,,,-99.99,,2013-01-02 12:53:00,
2013-01-02 06:02:00,7.0,6.0,-100.00,SSE,165,0.0,1.0,95,-99.99,,,-99.99,,2013-01-02 13:02:00,
2013-01-02 06:12:00,7.0,6.0,-100.00,SSE,165,0.0,1.0,95,-99.99,,,-99.99,,2013-01-02 13:12:00,
2013-01-02 06:22:00,6.0,5.0,-100.00,SSE,165,0.0,1.0,94,-99.99,,,-99.99,,2013-01-02 13:22:00,
2013-01-02 06:32:00,6.0,5.0,-100.00,SSE,164,0.0,1.0,95,-99.99,,,-99.99,,2013-01-02 13:32:00,
2013-01-02 06:42:00,6.0,5.0,-100.00,SSE,164,0.0,1.0,95,-99.99,,,-99.99,,2013-01-02 13:42:00,
2013-01-02 06:52:00,6.0,5.0,-100.00,SSE,163,0.0,1.0,95,-99.99,,,-99.99,,2013-01-02 13:52:00,
2013-01-02 07:02:00,6.0,5.0,-100.00,SSE,164,0.0,1.0,96,-99.99,,,-99.99,,2013-01-02 14:02:00,
2013-01-02 07:12:00,6.0,5.0,-100.00,SSE,164,0.0,1.0,96,-99.99,,,-99.99,,2013-01-02 14:12:00,
2013-01-02 07:22:00,6.0,5.0,-100.00,SSE,147,0.0,1.0,95,-99.99,,,-99.99,,2013-01-02 14:22:00,
2013-01-02 07:32:00,5.0,4.0,-100.00,ESE,123,0.0,2.0,94,-99.99,,,-99.99,,2013-01-02 14:32:00,
2013-01-02 07:42:00,5.0,4.0,-100.00,ESE,123,0.0,2.0,94,-99.99,,,-99.99,,2013-01-02 14:42:00,
2013-01-02 07:53:00,6.0,5.0,-100.00,East,98,0.0,0.0,96,-99.99,,,-99.99,,2013-01-02 14:53:00,
2013-01-02 08:02:00,6.0,5.0,-100.00,SSE,156,0.0,2.0,96,-99.99,,,-99.99,,2013-01-02 15:02:00,
2013-01-02 08:12:00,6.0,5.0,-100.00,SSE,156,0.0,2.0,96,-99.99,,,-99.99,,2013-01-02 15:12:00,
2013-01-02 08:22:00,7.0,6.0,-100.00,SE,146,0.0,0.0,96,-99.99,,,-99.99,,2013-01-02 15:22:00,
2013-01-02 08:33:00,6.0,4.0,-100.00,SSE,150,0.0,1.0,93,-99.99,,,-99.99,,2013-01-02 15:33:00,
2013-01-02 08:42:00,6.0,4.0,-100.00,SSE,150,0.0,1.0,93,-99.99,,,-99.99,,2013-01-02 15:42:00,
2013-01-02 08:53:00,6.0,5.0,-100.00,SE,142,0.0,1.0,95,-99.99,,,-99.99,,2013-01-02 15:53:00,
2013-01-02 09:02:00,5.0,3.0,-100.00,ENE,69,0.0,3.0,93,-99.99,,,-99.99,,2013-01-02 16:02:00,
2013-01-02 09:12:00,5.0,3.0,-100.00,ENE,69,0.0,3.0,93,-99.99,,,-99.99,,2013-01-02 16:12:00,
2013-01-02 09:22:00,4.0,3.0,-100.00,ESE,107,0.0,2.0,94,-99.99,,,-99.99,,2013-01-02 16:22:00,
2013-01-02 09:33:00,5.0,4.0,-100.00,South,172,1.0,3.0,95,-99.99,,,-99.99,,2013-01-02 16:33:00,
2013-01-02 09:42:00,5.0,4.0,-100.00,South,172,1.0,3.0,95,-99.99,,,-99.99,,2013-01-02 16:42:00,
2013-01-02 09:53:00,7.0,6.0,-100.00,SE,129,1.0,3.0,94,-99.99,,,-99.99,,2013-01-02 16:53:00,
2013-01-02 10:02:00,7.0,5.0,-100.00,SE,136,1.0,3.0,93,-99.99,,,-99.99,,2013-01-02 17:02:00,
2013-01-02 10:12:00,7.0,5.0,-100.00,SE,136,1.0,3.0,93,-99.99,,,-99.99,,2013-01-02 17:12:00,
2013-01-02 10:22:00,8.0,7.0,-100.00,SE,127,0.0,1.0,94,-99.99,,,-99.99,,2013-01-02 17:22:00,
2013-01-02 10:33:00,8.0,6.0,-100.00,South,171,0.0,2.0,92,-99.99,,,-99.99,,2013-01-02 17:33:00,
2013-01-02 10:43:00,8.0,6.0,-100.00,South,171,0.0,2.0,92,-99.99,,,-99.99,,2013-01-02 17:43:00,
2013-01-02 10:53:00,8.0,6.0,-100.00,SSE,155,0.0,1.0,92,-99.99,,,-99.99,,2013-01-02 17:53:00,
2013-01-02 11:02:00,8.0,6.0,-100.00,SSE,148,0.0,1.0,92,-99.99,,,-99.99,,2013-01-02 18:02:00,
2013-01-02 11:12:00,8.0,6.0,-100.00,SSE,148,0.0,1.0,92,-99.99,,,-99.99,,2013-01-02 18:12:00,
2013-01-02 11:22:00,9.0,7.0,-100.00,SE,134,0.0,0.0,92,-99.99,,,-99.99,,2013-01-02 18:22:00,
2013-01-02 11:33:00,10.0,8.0,-100.00,SE,141,0.0,0.0,92,-99.99,,,-99.99,,2013-01-02 18:33:00,
2013-01-02 11:42:00,10.0,8.0,-100.00,SE,141,0.0,0.0,92,-99.99,,,-99.99,,2013-01-02 18:42:00,
2013-01-02 11:53:00,12.0,9.0,-100.00,SSE,159,0.0,2.0,86,-99.99,,,-99.99,,2013-01-02 18:53:00,
2013-01-02 12:02:00,15.0,10.0,-100.00,South,171,0.0,2.0,81,-99.99,,,-99.99,,2013-01-02 19:02:00,
2013-01-02 12:12:00,15.0,10.0,-100.00,South,171,0.0,2.0,81,-99.99,,,-99.99,,2013-01-02 19:12:00,
2013-01-02 12:22:00,18.0,11.0,-100.00,NE,34,1.0,2.0,72,-99.99,,,-99.99,,2013-01-02 19:22:00,
2013-01-02 12:32:00,18.0,10.0,-100.00,NE,44,0.0,2.0,69,-99.99,,,-99.99,,2013-01-02 19:32:00,
2013-01-02 12:42:00,18.0,10.0,-100.00,NE,44,0.0,2.0,69,-99.99,,,-99.99,,2013-01-02 19:42:00,
2013-01-02 12:52:00,17.0,9.0,-100.00,North,357,0.0,4.0,70,-99.99,,,-99.99,,2013-01-02 19:52:00,
2013-01-02 13:02:00,18.0,9.0,-100.00,SW,229,0.0,3.0,68,-99.99,,,-99.99,,2013-01-02 20:02:00,
2013-01-02 13:12:00,18.0,9.0,-100.00,SW,229,0.0,3.0,68,-99.99,,,-99.99,,2013-01-02 20:12:00,
2013-01-02 13:22:00,19.0,9.0,-100.00,NNE,20,4.0,8.0,65,-99.99,,,-99.99,,2013-01-02 20:22:00,
2013-01-02 13:32:00,18.0,9.0,-100.00,NNW,343,3.0,7.0,66,-99.99,,,-99.99,,2013-01-02 20:32:00,
2013-01-02 13:42:00,18.0,9.0,-100.00,NNW,343,3.0,7.0,66,-99.99,,,-99.99,,2013-01-02 20:42:00,
2013-01-02 13:53:00,18.0,8.0,-100.00,NW,322,3.0,7.0,65,-99.99,,,-99.99,,2013-01-02 20:53:00,
2013-01-02 14:02:00,19.0,9.0,-100.00,NNW,343,2.0,5.0,64,-99.99,,,-99.99,,2013-01-02 21:02:00,
2013-01-02 14:12:00,19.0,9.0,-100.00,NNW,343,2.0,5.0,64,-99.99,,,-99.99,,2013-01-02 21:12:00,
2013-01-02 14:22:00,19.0,9.0,-100.00,SW,221,2.0,6.0,64,-99.99,,,-99.99,,2013-01-02 21:22:00,
2013-01-02 14:32:00,19.0,8.0,-100.00,SSW,206,3.0,6.0,62,-99.99,,,-99.99,,2013-01-02 21:32:00,
2013-01-02 14:42:00,19.0,8.0,-100.00,SSW,206,3.0,6.0,62,-99.99,,,-99.99,,2013-01-02 21:42:00,
2013-01-02 14:53:00,19.0,9.0,-100.00,NNW,348,3.0,7.0,63,-99.99,,,-99.99,,2013-01-02 21:53:00,
2013-01-02 15:02:00,19.0,8.0,-100.00,North,6,3.0,6.0,62,-99.99,,,-99.99,,2013-01-02 22:02:00,
2013-01-02 15:12:00,19.0,8.0,-100.00,North,6,3.0,6.0,62,-99.99,,,-99.99,,2013-01-02 22:12:00,
2013-01-02 15:22:00,19.0,8.0,-100.00,SW,229,3.0,9.0,62,-99.99,,,-99.99,,2013-01-02 22:22:00,
2013-01-02 15:32:00,19.0,8.0,-100.00,SSW,205,4.0,9.0,62,-99.99,,,-99.99,,2013-01-02 22:32:00,
2013-01-02 15:42:00,19.0,8.0,-100.00,SSW,205,4.0,9.0,62,-99.99,,,-99.99,,2013-01-02 22:42:00,
2013-01-02 15:53:00,19.0,8.0,-100.00,SW,214,2.0,7.0,62,-99.99,,,-99.99,,2013-01-02 22:53:00,
2013-01-02 16:02:00,19.0,7.0,-100.00,NNW,328,3.0,6.0,59,-99.99,,,-99.99,,2013-01-02 23:02:00,
2013-01-02 16:12:00,19.0,7.0,-100.00,NNW,328,3.0,6.0,59,-99.99,,,-99.99,,2013-01-02 23:12:00,
2013-01-02 16:22:00,17.0,7.0,-100.00,North,350,4.0,8.0,63,-99.99,,,-99.99,,2013-01-02 23:22:00,
2013-01-02 16:32:00,17.0,8.0,-100.00,WSW,246,2.0,6.0,67,-99.99,,,-99.99,,2013-01-02 23:32:00,
2013-01-02 16:42:00,17.0,8.0,-100.00,WSW,246,2.0,6.0,67,-99.99,,,-99.99,,2013-01-02 23:42:00,
2013-01-02 16:53:00,17.0,8.0,-100.00,NNE,32,1.0,5.0,66,-99.99,,,-99.99,,2013-01-02 23:53:00,
2013-01-02 17:02:00,15.0,6.0,-100.00,SSW,203,2.0,7.0,67,-99.99,,,-99.99,,2013-01-03 00:02:00,
2013-01-02 17:12:00,15.0,6.0,-100.00,SSW,203,2.0,7.0,67,-99.99,,,-99.99,,2013-01-03 00:12:00,
2013-01-02 17:22:00,15.0,7.0,-100.00,South,180,3.0,6.0,71,-99.99,,,-99.99,,2013-01-03 00:22:00,
2013-01-02 17:37:00,15.0,7.0,-100.00,South,183,3.0,7.0,69,-99.99,,,-99.99,,2013-01-03 00:37:00,
2013-01-02 17:42:00,15.0,7.0,-100.00,South,183,3.0,7.0,69,-99.99,,,-99.99,,2013-01-03 00:42:00,
2013-01-02 17:52:00,15.0,6.0,-100.00,South,188,3.0,8.0,68,-99.99,,,-99.99,,2013-01-03 00:52:00,
2013-01-02 18:02:00,15.0,6.0,-100.00,SSE,154,1.0,3.0,67,-99.99,,,-99.99,,2013-01-03 01:02:00,
2013-01-02 18:12:00,15.0,6.0,-100.00,SSE,154,1.0,3.0,67,-99.99,,,-99.99,,2013-01-03 01:12:00,
2013-01-02 18:22:00,14.0,5.0,-100.00,SSW,202,4.0,9.0,67,-99.99,,,-99.99,,2013-01-03 01:22:00,
2013-01-02 18:32:00,15.0,5.0,-100.00,SSW,197,3.0,7.0,64,-99.99,,,-99.99,,2013-01-03 01:32:00,
2013-01-02 18:42:00,15.0,5.0,-100.00,SSW,197,3.0,7.0,64,-99.99,,,-99.99,,2013-01-03 01:42:00,
2013-01-02 18:52:00,14.0,3.0,-100.00,South,190,3.0,8.0,62,-99.99,,,-99.99,,2013-01-03 01:52:00,
2013-01-02 19:02:00,14.0,2.0,-100.00,SSW,212,5.0,9.0,59,-99.99,,,-99.99,,2013-01-03 02:02:00,
2013-01-02 19:12:00,14.0,2.0,-100.00,SSW,212,5.0,9.0,59,-99.99,,,-99.99,,2013-01-03 02:12:00,
2013-01-02 19:22:00,15.0,1.0,-100.00,SW,221,1.0,6.0,54,-99.99,,,-99.99,,2013-01-03 02:22:00,
2013-01-02 19:32:00,14.0,1.0,-100.00,SSW,212,1.0,6.0,55,-99.99,,,-99.99,,2013-01-03 02:32:00,
2013-01-02 19:42:00,14.0,1.0,-100.00,SSW,212,1.0,6.0,55,-99.99,,,-99.99,,2013-01-03 02:42:00,
2013-01-02 19:52:00,14.0,1.0,-100.00,SSW,212,1.0,6.0,55,-99.99,,,-99.99,,2013-01-03 02:52:00,
2013-01-02 20:02:00,16.0,0.0,-100.00,SSW,205,2.0,6.0,49,-99.99,,,-99.99,,2013-01-03 03:02:00,
2013-01-02 20:12:00,16.0,0.0,-100.00,SSW,205,2.0,6.0,49,-99.99,,,-99.99,,2013-01-03 03:12:00,
2013-01-02 20:22:00,14.0,0.0,-100.00,South,187,2.0,5.0,53,-99.99,,,-99.99,,2013-01-03 03:22:00,
2013-01-02 20:39:00,15.0,0.0,-100.00,South,182,2.0,4.0,51,-99.99,,,-99.99,,2013-01-03 03:39:00,
2013-01-02 20:46:00,15.0,0.0,-100.00,South,182,2.0,4.0,51,-99.99,,,-99.99,,2013-01-03 03:46:00,
2013-01-02 20:52:00,15.0,0.0,-100.00,SSW,210,3.0,7.0,50,-99.99,,,-99.99,,2013-01-03 03:52:00,
2013-01-02 21:02:00,14.0,0.0,-100.00,South,186,3.0,5.0,52,-99.99,,,-99.99,,2013-01-03 04:02:00,
2013-01-02 21:12:00,14.0,0.0,-100.00,South,186,3.0,5.0,52,-99.99,,,-99.99,,2013-01-03 04:12:00,
2013-01-02 21:22:00,13.0,0.0,-100.00,South,174,2.0,5.0,55,-99.99,,,-99.99,,2013-01-03 04:22:00,
2013-01-02 21:32:00,13.0,0.0,-100.00,SSE,167,2.0,6.0,55,-99.99,,,-99.99,,2013-01-03 04:32:00,
2013-01-02 21:42:00,13.0,0.0,-100.00,SSE,167,2.0,6.0,55,-99.99,,,-99.99,,2013-01-03 04:42:00,
2013-01-02 21:52:00,13.0,-1.0,-100.00,SSW,197,3.0,6.0,53,-99.99,,,-99.99,,2013-01-03 04:52:00,
2013-01-02 22:03:00,13.0,-1.0,-100.00,SSW,196,4.0,7.0,53,-99.99,,,-99.99,,2013-01-03 05:03:00,
2013-01-02 22:12:00,13.0,-1.0,-100.00,SSW,196,4.0,7.0,53,-99.99,,,-99.99,,2013-01-03 05:12:00,
2013-01-02 22:22:00,13.0,-1.0,-100.00,SSW,201,5.0,8.0,52,-99.99,,,-99.99,,2013-01-03 05:22:00,
2013-01-02 22:33:00,14.0,-2.0,-100.00,SSW,207,6.0,9.0,48,-99.99,,,-99.99,,2013-01-03 05:33:00,
2013-01-02 22:42:00,14.0,-2.0,-100.00,SSW,207,6.0,9.0,48,-99.99,,,-99.99,,2013-01-03 05:42:00,
2013-01-02 22:52:00,14.0,-2.0,-100.00,SSW,201,5.0,9.0,47,-99.99,,,-99.99,,2013-01-03 05:52:00,
2013-01-02 23:02:00,13.0,-2.0,-100.00,South,188,4.0,6.0,51,-99.99,,,-99.99,,2013-01-03 06:02:00,
2013-01-02 23:12:00,13.0,-2.0,-100.00,South,188,4.0,6.0,51,-99.99,,,-99.99,,2013-01-03 06:12:00,
2013-01-02 23:22:00,12.0,-2.0,-100.00,SSW,193,4.0,7.0,52,-99.99,,,-99.99,,2013-01-03 06:22:00,
2013-01-02 23:32:00,12.0,-2.0,-100.00,SSW,195,4.0,7.0,53,-99.99,,,-99.99,,2013-01-03 06:32:00,
2013-01-02 23:42:00,12.0,-2.0,-100.00,SSW,195,4.0,7.0,53,-99.99,,,-99.99,,2013-01-03 06:42:00,
2013-01-02 23:52:00,12.0,-3.0,-100.00,SSW,199,2.0,6.0,51,-99.99,,,-99.99,,2013-01-03 06:52:00,